Inquirer Daily News

Weather

Get conditions and forecasts for any City, State, ZIP code or Country:  
Trenton, NJ
on Sunday, December 30, 2012

Sunday
Previous Day Next Day
Daily Summary
 ActualAverageRecord
Temperature
Mean Temperature °F 32°F  
Max Temperature 37°F 40°F 62°F (1990)
Min Temperature 27°F 24°F -8°F (1880)
Degree Days
Heating Degree Days 33 33  
Month to date heating degree days 720 886  
Since 1 July heating degree days 1727 1862  
Cooling Degree Days 0 0  
Month to date cooling degree days 0 0  
Year to date cooling degree days 1234 965  
Moisture
Dew Point 18°F   
Average Humidity 58    
Maximum Humidity 72    
Minimum Humidity 43    
Precipitation
Precipitation 0.00 in 0.08 in 2.59 in (1948)
Month to date precipitation 4.23 3.61  
Year to date precipitation 37.46 46.35  
Wind
Wind Speed 13 mph   
Max Wind Speed 28 mph   
Max Gust Speed 43 mph   
Visibility 10 miles   
Events     

Key: T is trace of precipitation, MM is missing value
Source: NWS Daily Summary
Time(EST)TemperatureDew PointHumidity Pressure Visibility Wind DirectionWind SpeedGust SpeedPrecipitationEvents Conditions
12:00 AM 32.0°F 24.8°F 75% 29.65 in 10.0 miles NW 10.4 mph - N/A   Overcast
12:07 AM 32.0°F 24.8°F 75% 29.66 in 10.0 miles NNW 11.5 mph 18.4 mph N/A   Mostly Cloudy
12:53 AM 30.9°F 23.0°F 72% 29.66 in 10.0 miles NNW 11.5 mph 17.3 mph N/A   Mostly Cloudy
1:53 AM 32.0°F 23.0°F 69% 29.70 in 10.0 miles NNW 10.4 mph - N/A   Overcast
2:53 AM 32.0°F 21.9°F 66% 29.73 in 10.0 miles NW 12.7 mph 24.2 mph N/A   Overcast
3:53 AM 32.0°F 21.9°F 66% 29.76 in 10.0 miles NW 11.5 mph 19.6 mph N/A   Scattered Clouds
4:53 AM 32.0°F 21.0°F 64% 29.77 in 10.0 miles NNW 9.2 mph - N/A   Overcast
5:53 AM 30.0°F 19.0°F 64% 29.81 in 10.0 miles NW 9.2 mph 18.4 mph N/A   Partly Cloudy
6:53 AM 28.9°F 17.1°F 61% 29.85 in 10.0 miles NW 11.5 mph 23.0 mph N/A   Clear
7:53 AM 30.0°F 17.1°F 59% 29.88 in 10.0 miles NW 16.1 mph 24.2 mph N/A   Clear
8:53 AM 30.9°F 16.0°F 54% 29.92 in 10.0 miles NW 19.6 mph 31.1 mph N/A   Clear
9:53 AM 32.0°F 16.0°F 52% 29.96 in 10.0 miles NNW 16.1 mph 29.9 mph N/A   Clear
10:53 AM 33.1°F 15.1°F 48% 29.97 in 10.0 miles NNW 13.8 mph 31.1 mph N/A   Clear
11:53 AM 35.1°F 17.1°F 48% 29.97 in 10.0 miles NNW 20.7 mph 29.9 mph N/A   Partly Cloudy
12:53 PM 36.0°F 18.0°F 48% 29.98 in 10.0 miles NNW 18.4 mph 34.5 mph N/A   Mostly Cloudy
1:53 PM 36.0°F 18.0°F 48% 29.98 in 10.0 miles NNW 20.7 mph 29.9 mph N/A   Overcast
2:53 PM 36.0°F 18.0°F 48% 30.01 in 10.0 miles North 16.1 mph 29.9 mph N/A   Overcast
3:53 PM 36.0°F 19.9°F 52% 30.05 in 10.0 miles NNW 11.5 mph 21.9 mph N/A   Overcast
4:53 PM 34.0°F 19.9°F 56% 30.08 in 10.0 miles NNW 11.5 mph 21.9 mph N/A   Clear
5:53 PM 34.0°F 18.0°F 52% 30.13 in 10.0 miles North 13.8 mph 25.3 mph N/A   Scattered Clouds
6:53 PM 32.0°F 16.0°F 52% 30.17 in 10.0 miles North 8.1 mph - N/A   Clear
7:53 PM 32.0°F 15.1°F 50% 30.18 in 10.0 miles NNW 12.7 mph 21.9 mph N/A   Clear
8:53 PM 32.0°F 12.9°F 45% 30.17 in 10.0 miles NNW 11.5 mph 29.9 mph N/A   Clear
9:53 PM 30.9°F 12.0°F 46% 30.18 in 10.0 miles North 9.2 mph 17.3 mph N/A   Clear
10:53 PM 30.0°F 12.0°F 47% 30.20 in 10.0 miles NNW 5.8 mph - N/A   Clear
11:53 PM 27.0°F 12.9°F 56% 30.21 in 10.0 miles SW 3.5 mph - N/A   Clear
Astronomy
Sunrise:07:21 AM (EST) Moon Rise:07:11 PM (EST)12/30
Sunset:04:42 PM (EST) Moon Set:08:29 AM (EST)12/30
Moon Phase
Dec. 30 Jan. 04 Jan. 11 Jan. 18 Jan. 26

Copyright © 2014 The Weather Underground, Inc.